Weather History for Vinton, IA

Change the Weather History Date:

Monday, November 19, 2012

  Actual Average Record
Temperature  
Mean Temperature 49 °F -  
Max Temperature 57 °F 46 °F 66 °F (1953)
Min Temperature 40 °F 28 °F 13 °F (1966)
Degree Days  
Heating Degree Days 16    
Moisture  
Dew Point 41 °F    
Average Humidity 75    
Maximum Humidity 93    
Minimum Humidity 51    
Precipitation  
Precipitation 0.06 in - - ()
Sea Level Pressure  
Sea Level Pressure 30.12 in    
Wind  
Wind Speed 9 mph (SSE)    
Max Wind Speed 14 mph    
Max Gust Speed 18 mph    
Visibility 8 miles    
Events Fog , Rain    
Averages and records for this station are not official NWS values.
T = Trace of Precipitation, MM = Missing Value Source: NWS Daily Summary

Daily Weather History Graph

Daily Weather History Graph

Search for Another Location

Airport:

Trip Planner

Search our weather history database for the weather conditions in past years. The results will help you decide how hot, cold, wet, or windy it might be!

Date:

Astronomy

Nov. 19, 2012 Rise Set
Actual Time 7:04 AM CST 4:42 PM CST
Civil Twilight 6:33 AM CST 5:13 PM CST
Nautical Twilight 5:59 AM CST 5:47 PM CST
Astronomical Twilight 5:26 AM CST 6:20 PM CST
Moon 12:04 PM CST (11/19) 11:13 PM CST (11/19)
Length of Visible Light 10h 39m
Length of Day
9h 38m
Waxing Crescent, 41% of the Moon is Illuminated
Nov 19
Waxing Crescent
Nov 20
First Quarter
Nov 28
Full
Dec 6
Last Quarter
Dec 13
New

Hourly Weather History & Observations

Time (CST) Temp. Windchill Dew Point Humidity Pressure Visibility Wind Dir Wind Speed Gust Speed Precip Events Conditions
12:15 AM 49.5 °F - 32.0 °F 51% 30.20 in 10.0 mi South 12.7 mph - N/A   Scattered Clouds
12:35 AM 49.5 °F - 32.2 °F 51% 30.19 in 10.0 mi South 10.4 mph - N/A   Clear
12:55 AM 49.5 °F - 32.4 °F 52% 30.19 in 10.0 mi South 11.5 mph - N/A   Scattered Clouds
1:15 AM 49.5 °F - 32.5 °F 52% 30.19 in 10.0 mi South 9.2 mph - N/A   Overcast
1:35 AM 49.5 °F - 33.8 °F 55% 30.19 in 10.0 mi South 8.1 mph - N/A Rain Light Rain
1:55 AM 49.5 °F - 34.3 °F 56% 30.20 in 10.0 mi SSE 8.1 mph - N/A   Mostly Cloudy
2:15 AM 49.5 °F - 34.7 °F 57% 30.20 in 10.0 mi SSE 9.2 mph - N/A   Mostly Cloudy
2:35 AM 49.5 °F - 34.7 °F 57% 30.20 in 10.0 mi South 8.1 mph - N/A   Mostly Cloudy
2:55 AM 49.5 °F - 34.7 °F 57% 30.20 in 10.0 mi South 5.8 mph - N/A   Scattered Clouds
3:15 AM 49.5 °F - 35.1 °F 58% 30.20 in 10.0 mi SW 4.6 mph - N/A   Scattered Clouds
3:35 AM 45.1 °F 40.8 °F 37.2 °F 74% 30.19 in 7.0 mi SW 8.1 mph - N/A Rain Light Rain
3:55 AM 43.7 °F 40.3 °F 37.9 °F 80% 30.19 in 7.0 mi SW 5.8 mph - 0.01 in Rain Light Rain
4:15 AM 43.2 °F 39.0 °F 38.5 °F 84% 30.18 in 7.0 mi South 6.9 mph - 0.02 in Rain Rain
4:35 AM 43.2 °F 38.4 °F 39.6 °F 87% 30.17 in 7.0 mi South 8.1 mph - 0.05 in Rain Light Rain
4:55 AM 44.1 °F 38.1 °F 40.6 °F 88% 30.16 in 10.0 mi SSE 11.5 mph - 0.05 in Rain Light Rain
5:15 AM 44.8 °F 39.4 °F 41.2 °F 87% 30.15 in 10.0 mi South 10.4 mph - N/A Rain Rain
5:35 AM 45.9 °F 41.7 °F 41.7 °F 85% 30.15 in 10.0 mi SSE 8.1 mph - N/A Rain Light Rain
5:55 AM 44.6 °F 40.2 °F 40.5 °F 85% 30.14 in 10.0 mi SSE 8.1 mph - N/A   Mostly Cloudy
6:15 AM 43.7 °F 39.7 °F 39.4 °F 85% 30.15 in 10.0 mi SSE 6.9 mph - N/A   Mostly Cloudy
6:35 AM 43.7 °F 39.7 °F 37.9 °F 80% 30.14 in 10.0 mi SSE 6.9 mph - N/A   Drizzle
6:55 AM 44.2 °F 40.3 °F 37.6 °F 77% 30.14 in 10.0 mi SE 6.9 mph - N/A   Scattered Clouds
7:35 AM 44.6 °F 41.4 °F 37.0 °F 75% 30.14 in 10.0 mi SE 5.8 mph - N/A   Scattered Clouds
7:55 AM 45.7 °F 41.5 °F 38.3 °F 75% 30.14 in 10.0 mi SSE 8.1 mph - N/A   Scattered Clouds
8:15 AM 46.8 °F - 38.3 °F 72% 30.15 in 10.0 mi SSE 6.9 mph - N/A   Scattered Clouds
8:35 AM 46.9 °F - 38.3 °F 72% 30.15 in 10.0 mi SSE 9.2 mph - N/A   Scattered Clouds
8:55 AM 46.9 °F - 37.6 °F 70% 30.15 in 10.0 mi SSE 10.4 mph 16.1 mph N/A   Clear
9:15 AM 49.5 °F - 39.7 °F 69% 30.15 in 10.0 mi SSE 13.8 mph 18.4 mph N/A   Clear
9:35 AM 49.5 °F - 39.0 °F 67% 30.14 in 10.0 mi South 9.2 mph - N/A   Clear
9:55 AM 50.4 °F - 39.6 °F 66% 30.15 in 10.0 mi South 12.7 mph - N/A   Clear
10:15 AM 50.9 °F - 40.5 °F 67% 30.15 in 10.0 mi South 11.5 mph - N/A   Clear
10:35 AM 49.5 °F - 39.9 °F 70% 30.14 in 10.0 mi South 8.1 mph - N/A   Scattered Clouds
10:55 AM 52.0 °F - 42.4 °F 70% 30.13 in 10.0 mi South 11.5 mph - N/A   Clear
11:15 AM 53.2 °F - 43.3 °F 69% 30.12 in 10.0 mi South 10.4 mph 16.1 mph N/A   Clear
11:35 AM 54.5 °F - 44.2 °F 68% 30.10 in 10.0 mi South 10.4 mph 16.1 mph N/A   Scattered Clouds
11:55 AM 54.5 °F - 44.2 °F 68% 30.10 in 10.0 mi South 8.1 mph - N/A   Scattered Clouds
12:15 PM 54.7 °F - 43.9 °F 67% 30.08 in 10.0 mi South 12.7 mph 17.3 mph N/A   Clear
12:35 PM 57.0 °F - 45.3 °F 65% 30.08 in 10.0 mi South 11.5 mph 16.1 mph N/A   Scattered Clouds
12:55 PM 54.5 °F - 43.2 °F 66% 30.09 in 10.0 mi South 13.8 mph - N/A   Mostly Cloudy
1:15 PM 54.5 °F - 44.1 °F 68% 30.08 in 10.0 mi South 12.7 mph - N/A   Mostly Cloudy
1:35 PM 54.5 °F - 43.9 °F 67% 30.07 in 10.0 mi SSW 9.2 mph - N/A   Mostly Cloudy
1:55 PM 54.5 °F - 44.4 °F 69% 30.07 in 10.0 mi South 9.2 mph - N/A   Mostly Cloudy
2:15 PM 54.5 °F - 44.6 °F 69% 30.06 in 10.0 mi South 6.9 mph - N/A   Mostly Cloudy
2:35 PM 54.5 °F - 44.8 °F 70% 30.06 in 10.0 mi South 8.1 mph - N/A   Mostly Cloudy
2:55 PM 54.5 °F - 45.0 °F 70% 30.06 in 10.0 mi South 5.8 mph - N/A   Overcast
3:15 PM 54.5 °F - 45.0 °F 70% 30.06 in 10.0 mi South 6.9 mph - N/A   Mostly Cloudy
3:35 PM 54.5 °F - 44.8 °F 70% 30.06 in 10.0 mi SSE 6.9 mph - N/A   Overcast
3:55 PM 54.5 °F - 45.9 °F 73% 30.06 in 10.0 mi South 5.8 mph - N/A   Overcast
4:15 PM 54.5 °F - 46.2 °F 74% 30.06 in 10.0 mi SSE 6.9 mph - N/A   Overcast
4:35 PM 54.5 °F - 46.8 °F 75% 30.06 in 10.0 mi SSE 5.8 mph - N/A   Overcast
4:55 PM 52.0 °F - 45.0 °F 77% 30.06 in 10.0 mi SSE 5.8 mph - N/A   Overcast
5:15 PM 52.0 °F - 45.5 °F 79% 30.07 in 10.0 mi SSE 6.9 mph - N/A   Overcast
5:35 PM 50.9 °F - 44.6 °F 79% 30.07 in 10.0 mi South 6.9 mph - N/A   Mostly Cloudy
5:55 PM 49.6 °F - 43.7 °F 80% 30.08 in 10.0 mi South 5.8 mph - N/A   Mostly Cloudy
6:15 PM 49.5 °F - 44.1 °F 82% 30.08 in 10.0 mi SSE 6.9 mph - N/A   Mostly Cloudy
6:35 PM 49.5 °F - 44.6 °F 83% 30.08 in 10.0 mi SSE 8.1 mph - N/A   Scattered Clouds
6:55 PM 48.6 °F - 44.2 °F 85% 30.08 in 10.0 mi SSE 5.8 mph - N/A   Clear
7:15 PM 46.9 °F - 43.0 °F 86% 30.08 in 7.0 mi SSE 8.1 mph - N/A   Clear
7:35 PM 46.9 °F - 43.3 °F 87% 30.08 in 7.0 mi SSE 6.9 mph - N/A   Clear
7:55 PM 44.6 °F 41.4 °F 41.0 °F 87% 30.08 in 5.0 mi SSE 5.8 mph - N/A   Clear
8:15 PM 45.3 °F 41.6 °F 42.4 °F 90% 30.08 in 5.0 mi SE 6.9 mph - N/A   Clear
8:35 PM 44.6 °F 41.4 °F 41.5 °F 89% 30.08 in 5.0 mi SE 5.8 mph - N/A   Clear
8:55 PM 43.2 °F 39.7 °F 40.5 °F 90% 30.08 in 5.0 mi SSE 5.8 mph - N/A   Clear
9:15 PM 43.3 °F 39.9 °F 41.0 °F 91% 30.08 in 5.0 mi SE 5.8 mph - N/A   Clear
9:35 PM 43.2 °F 39.7 °F 40.6 °F 91% 30.08 in 4.0 mi SE 5.8 mph - N/A   Clear
9:55 PM 43.2 °F 39.7 °F 41.0 °F 92% 30.07 in 3.0 mi SSE 5.8 mph - N/A   Clear
10:15 PM 42.4 °F 39.6 °F 40.3 °F 92% 30.06 in 2.5 mi SSE 4.6 mph - N/A   Mist
10:35 PM 41.9 °F 40.0 °F 39.7 °F 92% 30.06 in 2.0 mi SE 3.5 mph - N/A   Mist
10:55 PM 41.9 °F 40.0 °F 39.7 °F 92% 30.06 in 2.0 mi SE 3.5 mph - N/A   Mist
11:15 PM 41.9 °F 39.0 °F 40.1 °F 93% 30.06 in 1.2 mi SE 4.6 mph - N/A   Mist
11:35 PM 41.0 °F 39.0 °F 39.0 °F 93% 30.06 in 0.5 mi SSE 3.5 mph - N/A Fog Fog
11:55 PM 40.1 °F - 38.3 °F 93% 30.07 in 0.2 mi Calm Calm - N/A Fog Fog